Location: Staunton
(38.1490°N, 79.0720°W)
Time: 01:40:36
(UTC-04:00)

ISS - Pass Details

Date: 05 May 2021
Orbit: 417 x 422 km, 51.6° (Epoch: 18 May)

Event Time Altitude Azimuth Distance (km) Brightness Sun altitude
Exits shadow 03:45:58 14° 336° (NNW) 1,285 -1.0 -24.8°
Maximum altitude 03:46:11 14° 340° (NNW) 1,282 -1.0 -24.7°
Drops below altitude 10° 03:48:03 10° 14° (NNE) 1,504 -0.1 -24.5°
Sets 03:50:57 0° 41° (NE) 2,371 1.5 -24.1°
